Humidity-temperature Sensor

Selected Measurement Type: Air Temperature

 
Air Temperature [°C]     6 entries per hour
Showing data from 2/26/2016 (00:00:00 Z) to 2/19/2016 (00:01:00 Z)
Previous Next [ Day | 3-Days | 7-Days ]
First Last
Prev [ Day | 3-Days | 7-Days ] Next
First Last

Start Time:     :
End Time:     :     
Time (in GMT) :00 :50 :40 :30 :20 :10
Previous Next [ Day | 3-Days | 7-Days ]
First Last
Prev [ Day | 3-Days | 7-Days ] Next
First Last


123 => good data
MM => data is determined as missing
-- => data not received/configured
Back to Top Back to Top
2/26/2016 00:00 to 23:10 28.40 28.25 28.33 28.29 28.30 27.98
2/25/2016 23:00 to 22:10 28.11 28.42 28.39 28.33 28.05 28.35
2/25/2016 22:00 to 21:10 28.20 28.37 28.39 28.39 28.29 28.36
2/25/2016 21:00 to 20:10 28.46 28.45 28.41 28.39 28.39 28.47
2/25/2016 20:00 to 19:10 28.47 28.35 28.15 28.38 28.49 28.32
2/25/2016 19:00 to 18:10 28.42 28.23 28.15 28.20 28.18 27.90
2/25/2016 18:00 to 17:10 27.87 27.90 27.97 28.04 27.99 28.12
2/25/2016 17:00 to 16:10 27.96 27.79 27.83 28.09 28.00 27.95
2/25/2016 16:00 to 15:10 28.07 27.75 27.58 27.58 27.37 26.86
2/25/2016 15:00 to 14:10 27.17 27.06 27.16 26.97 26.77 26.83
2/25/2016 14:00 to 13:10 26.84 27.05 27.49 28.22 28.33 28.24
2/25/2016 13:00 to 12:10 28.22 28.06 27.67 27.40 27.87 28.25
2/25/2016 12:00 to 11:10 28.26 28.28 28.07 28.28 28.18 28.03
2/25/2016 11:00 to 10:10 28.24 28.20 28.23 28.25 28.31 28.29
2/25/2016 10:00 to 9:10 28.25 28.27 28.37 28.35 28.43 28.35
2/25/2016 09:00 to 8:10 28.34 28.36 28.49 28.48 28.37 28.49
2/25/2016 08:00 to 7:10 28.47 28.48 28.50 28.52 28.44 28.56
2/25/2016 07:00 to 6:10 28.45 28.38 28.35 28.42 28.21 28.15
2/25/2016 06:00 to 5:10 28.40 28.47 28.25 28.16 28.19 28.36
2/25/2016 05:00 to 4:10 28.23 28.31 28.25 28.22 27.96 28.31
2/25/2016 04:00 to 3:10 28.72 28.65 28.56 28.62 28.47 28.67
2/25/2016 03:00 to 2:10 28.66 28.65 28.64 28.67 28.71 28.81
2/25/2016 02:00 to 1:10 28.70 28.63 28.70 28.63 28.64 28.53
2/25/2016 01:00 to 0:10 28.40 28.71 28.68 28.68 28.74 28.72
2/25/2016 00:00 to 23:10 28.68 28.76 28.64 28.64 28.67 28.60
2/24/2016 23:00 to 22:10 28.48 28.48 28.55 28.71 28.66 28.55
2/24/2016 22:00 to 21:10 28.48 28.53 28.64 28.68 28.60 28.42
2/24/2016 21:00 to 20:10 28.30 28.25 28.21 28.45 28.52 28.36
2/24/2016 20:00 to 19:10 28.37 28.36 28.22 28.01 27.75 27.21
2/24/2016 19:00 to 18:10 26.60 26.90 27.10 28.11 27.70 27.45
2/24/2016 18:00 to 17:10 27.30 27.36 27.09 27.02 26.66 27.37
2/24/2016 17:00 to 16:10 28.05 27.72 26.98 26.90 27.44 27.87
2/24/2016 16:00 to 15:10 27.49 27.37 27.37 27.36 27.18 27.54
2/24/2016 15:00 to 14:10 28.05 28.02 28.01 28.14 28.02 28.00
2/24/2016 14:00 to 13:10 27.97 27.86 27.77 27.76 27.94 27.89
2/24/2016 13:00 to 12:10 27.94 27.93 27.87 27.75 27.89 27.72
2/24/2016 12:00 to 11:10 27.83 27.89 27.75 27.81 27.88 27.76
2/24/2016 11:00 to 10:10 27.84 27.68 27.83 27.86 27.93 27.84
2/24/2016 10:00 to 9:10 27.79 27.72 27.87 27.91 28.04 28.01
2/24/2016 09:00 to 8:10 28.04 27.98 27.96 28.07 27.84 27.88
2/24/2016 08:00 to 7:10 28.11 27.96 28.02 28.09 28.17 28.08
2/24/2016 07:00 to 6:10 28.19 28.09 28.24 28.02 28.42 28.44
2/24/2016 06:00 to 5:10 28.47 28.44 28.43 28.48 28.50 28.43
2/24/2016 05:00 to 4:10 28.47 28.53 28.50 28.48 28.37 28.54
2/24/2016 04:00 to 3:10 28.50 28.60 28.41 28.50 28.55 28.52
2/24/2016 03:00 to 2:10 28.45 28.58 28.54 28.48 28.52 28.54
2/24/2016 02:00 to 1:10 28.49 28.63 28.68 28.83 28.79 28.74
2/24/2016 01:00 to 0:10 28.46 28.13 28.37 28.42 28.41 28.38
2/24/2016 00:00 to 23:10 28.35 28.34 28.33 28.33 28.31 28.37
2/23/2016 23:00 to 22:10 28.45 28.50 28.49 28.55 28.68 28.44
2/23/2016 22:00 to 21:10 28.31 28.20 28.16 28.15 28.06 27.79
2/23/2016 21:00 to 20:10 27.70 28.61 28.47 28.49 28.63 28.55
2/23/2016 20:00 to 19:10 28.49 28.41 28.43 28.37 28.44 28.46
2/23/2016 19:00 to 18:10 28.42 28.58 28.34 28.41 28.46 28.54
2/23/2016 18:00 to 17:10 28.44 28.68 28.70 28.58 28.75 28.58
2/23/2016 17:00 to 16:10 28.72 28.79 28.85 28.71 28.80 28.45
2/23/2016 16:00 to 15:10 28.84 28.74 28.69 28.35 28.28 28.20
2/23/2016 15:00 to 14:10 28.16 28.11 28.06 28.05 28.06 27.96
2/23/2016 14:00 to 13:10 28.05 27.92 27.94 27.95 27.84 27.81
2/23/2016 13:00 to 12:10 27.91 27.90 27.77 27.85 28.02 27.99
2/23/2016 12:00 to 11:10 27.70 27.92 27.89 27.97 27.68 27.70
2/23/2016 11:00 to 10:10 27.85 27.88 27.80 27.92 27.73 27.70
2/23/2016 10:00 to 9:10 27.68 27.60 27.41 27.57 27.97 27.93
2/23/2016 09:00 to 8:10 27.82 27.84 27.80 27.80 27.83 27.91
2/23/2016 08:00 to 7:10 27.85 27.80 27.79 27.80 27.63 27.59
2/23/2016 07:00 to 6:10 27.81 28.17 28.15 28.07 27.95 27.92
2/23/2016 06:00 to 5:10 28.03 27.93 27.90 27.87 27.86 27.89
2/23/2016 05:00 to 4:10 28.06 27.95 27.99 27.97 27.95 27.98
2/23/2016 04:00 to 3:10 27.96 28.11 28.05 28.07 27.98 27.99
2/23/2016 03:00 to 2:10 28.06 27.92 27.98 27.92 27.92 27.89
2/23/2016 02:00 to 1:10 28.04 27.97 27.95 27.98 27.97 27.90
2/23/2016 01:00 to 0:10 28.08 27.99 28.02 28.57 28.56 28.54
2/23/2016 00:00 to 23:10 28.37 28.45 28.41 28.48 28.45 28.52
2/22/2016 23:00 to 22:10 28.32 28.44 28.39 28.27 28.27 28.27
2/22/2016 22:00 to 21:10 28.22 28.23 27.95 27.56 27.72 28.24
2/22/2016 21:00 to 20:10 28.20 28.29 28.33 28.51 28.56 28.42
2/22/2016 20:00 to 19:10 28.54 28.44 28.43 28.39 28.27 28.31
2/22/2016 19:00 to 18:10 28.26 28.18 28.23 28.38 27.99 28.02
2/22/2016 18:00 to 17:10 27.89 27.93 28.16 28.37 27.82 28.38
2/22/2016 17:00 to 16:10 28.33 28.24 28.17 28.09 27.85 27.67
2/22/2016 16:00 to 15:10 27.43 28.16 28.16 28.10 28.20 28.12
2/22/2016 15:00 to 14:10 28.04 28.01 27.98 27.89 28.06 28.00
2/22/2016 14:00 to 13:10 28.07 28.14 28.00 28.11 28.03 28.05
2/22/2016 13:00 to 12:10 27.98 27.96 28.04 27.97 28.03 28.09
2/22/2016 12:00 to 11:10 28.09 28.02 28.01 28.05 28.05 27.99
2/22/2016 11:00 to 10:10 28.04 28.01 28.00 28.05 28.10 28.14
2/22/2016 10:00 to 9:10 28.06 28.12 28.12 28.16 28.09 28.19
2/22/2016 09:00 to 8:10 28.19 28.27 28.20 28.18 28.10 28.11
2/22/2016 08:00 to 7:10 28.12 28.27 28.37 28.30 28.30 28.19
2/22/2016 07:00 to 6:10 28.24 27.98 27.85 27.55 27.28 27.38
2/22/2016 06:00 to 5:10 28.13 27.97 27.84 27.71 27.36 26.97
2/22/2016 05:00 to 4:10 27.17 27.23 26.97 26.74 26.32 26.19
2/22/2016 04:00 to 3:10 26.49 27.63 27.47 27.42 27.36 27.12
2/22/2016 03:00 to 2:10 26.95 26.84 26.81 26.61 26.45 26.34
2/22/2016 02:00 to 1:10 26.24 26.13 26.19 26.40 26.79 26.88
2/22/2016 01:00 to 0:10 26.57 26.96 27.35 27.57 27.39 27.32
2/22/2016 00:00 to 23:10 27.23 27.05 26.61 26.43 26.37 26.42
2/21/2016 23:00 to 22:10 26.50 27.22 27.30 27.28 27.79 28.39
2/21/2016 22:00 to 21:10 28.31 28.25 28.35 28.28 28.17 28.23
2/21/2016 21:00 to 20:10 28.12 28.11 28.15 28.21 28.12 28.13
2/21/2016 20:00 to 19:10 28.06 28.13 28.15 28.14 28.21 28.24
2/21/2016 19:00 to 18:10 28.23 28.20 28.24 28.37 28.33 28.28
2/21/2016 18:00 to 17:10 28.21 28.10 28.22 28.03 28.14 28.04
2/21/2016 17:00 to 16:10 28.10 27.79 27.53 27.65 27.47 27.64
2/21/2016 16:00 to 15:10 27.62 27.56 27.42 27.45 27.26 27.34
2/21/2016 15:00 to 14:10 27.39 27.27 27.41 27.38 27.10 27.41
2/21/2016 14:00 to 13:10 27.22 27.12 27.06 27.00 26.66 26.86
2/21/2016 13:00 to 12:10 26.65 26.55 26.79 26.67 26.43 26.29
2/21/2016 12:00 to 11:10 26.56 26.44 26.54 26.52 26.66 26.65
2/21/2016 11:00 to 10:10 26.56 26.56 26.16 26.23 26.54 26.60
2/21/2016 10:00 to 9:10 26.38 26.61 26.35 26.57 26.61 26.51
2/21/2016 09:00 to 8:10 26.43 26.30 26.55 26.51 26.37 26.17
2/21/2016 08:00 to 7:10 26.05 26.49 27.62 27.56 27.49 27.42
2/21/2016 07:00 to 6:10 27.43 27.37 27.28 27.23 27.18 27.05
2/21/2016 06:00 to 5:10 27.34 27.15 27.17 27.16 27.03 26.98
2/21/2016 05:00 to 4:10 26.98 26.95 26.98 26.81 26.64 26.50
2/21/2016 04:00 to 3:10 26.47 26.58 26.71 26.50 26.45 26.60
2/21/2016 03:00 to 2:10 26.39 26.26 26.39 25.74 25.54 26.21
2/21/2016 02:00 to 1:10 27.00 27.82 28.34 28.27 28.15 28.21
2/21/2016 01:00 to 0:10 28.22 28.27 28.26 28.34 28.23 28.22
2/21/2016 00:00 to 23:10 28.37 28.39 28.40 28.22 28.18 28.19
2/20/2016 23:00 to 22:10 28.20 28.22 28.30 28.13 28.20 28.13
2/20/2016 22:00 to 21:10 28.12 28.19 28.20 28.50 28.46 28.35
2/20/2016 21:00 to 20:10 28.32 28.27 28.30 28.27 28.19 28.20
2/20/2016 20:00 to 19:10 28.10 28.09 28.04 28.04 27.94 27.98
2/20/2016 19:00 to 18:10 27.92 28.02 27.87 27.80 27.65 27.31
2/20/2016 18:00 to 17:10 27.44 27.73 28.57 28.62 28.67 28.68
2/20/2016 17:00 to 16:10 28.67 28.71 28.78 28.75 28.65 28.72
2/20/2016 16:00 to 15:10 28.79 28.83 28.61 28.56 28.33 28.05
2/20/2016 15:00 to 14:10 28.04 28.09 28.01 28.07 27.99 28.04
2/20/2016 14:00 to 13:10 28.02 27.99 28.02 28.04 27.95 27.99
2/20/2016 13:00 to 12:10 27.97 28.11 27.98 27.93 28.00 27.93
2/20/2016 12:00 to 11:10 27.92 27.96 28.13 28.00 27.91 27.88
2/20/2016 11:00 to 10:10 27.84 27.83 27.88 28.01 27.89 27.99
2/20/2016 10:00 to 9:10 27.98 28.06 27.98 28.02 28.04 27.96
2/20/2016 09:00 to 8:10 27.81 27.72 28.02 28.14 28.18 28.18
2/20/2016 08:00 to 7:10 28.00 27.70 27.27 26.73 26.68 26.15
2/20/2016 07:00 to 6:10 26.13 27.68 27.87 27.69 26.94 26.21
2/20/2016 06:00 to 5:10 26.10 26.79 26.60 26.12 26.21 26.29
2/20/2016 05:00 to 4:10 -- -- -- -- -- --
2/20/2016 04:00 to 3:10 27.96 27.91 27.73 27.76 27.74 27.69
2/20/2016 03:00 to 2:10 27.78 27.72 27.70 27.69 27.68 27.83
2/20/2016 02:00 to 1:10 27.84 27.86 27.89 27.82 27.74 27.70
2/20/2016 01:00 to 0:10 27.65 27.44 27.47 27.57 27.68 27.65
2/20/2016 00:00 to 23:10 27.36 27.18 26.61 25.93 26.60 27.36
2/19/2016 23:00 to 22:10 27.21 27.11 26.97 26.68 26.58 26.47
2/19/2016 22:00 to 21:10 26.26 26.24 26.24 26.08 28.35 28.32
2/19/2016 21:00 to 20:10 28.32 28.37 28.54 28.47 28.36 28.41
2/19/2016 20:00 to 19:10 28.32 28.38 28.26 28.35 28.36 28.20
2/19/2016 19:00 to 18:10 28.27 28.39 28.31 28.27 28.22 28.22
2/19/2016 18:00 to 17:10 28.22 28.11 27.69 27.21 27.33 27.58
2/19/2016 17:00 to 16:10 27.75 27.59 27.75 27.89 28.19 28.03
2/19/2016 16:00 to 15:10 27.74 27.44 27.81 27.76 27.72 27.96
2/19/2016 15:00 to 14:10 27.83 27.86 27.77 27.75 27.81 27.74
2/19/2016 14:00 to 13:10 27.78 27.68 27.61 27.66 27.64 27.58
2/19/2016 13:00 to 12:10 27.59 27.76 27.79 27.65 27.65 27.60
2/19/2016 12:00 to 11:10 27.57 27.44 27.30 27.17 26.96 26.83
2/19/2016 11:00 to 10:10 27.73 27.68 27.73 27.54 27.45 27.41
2/19/2016 10:00 to 9:10 27.26 27.21 27.17 26.96 26.89 26.99
2/19/2016 09:00 to 8:10 27.04 26.91 27.01 26.96 27.41 27.56
2/19/2016 08:00 to 7:10 27.49 27.42 27.79 28.00 27.93 27.96
2/19/2016 07:00 to 6:10 27.96 28.01 28.06 28.01 28.00 28.10
2/19/2016 06:00 to 5:10 28.06 28.15 28.10 28.18 28.23 28.18
2/19/2016 05:00 to 4:10 28.06 28.14 28.08 27.76 28.27 28.26
2/19/2016 04:00 to 3:10 28.29 28.30 28.24 28.27 28.24 28.14
2/19/2016 03:00 to 2:10 28.29 28.36 28.28 28.16 28.24 28.20
2/19/2016 02:00 to 1:10 28.11 28.22 28.21 28.13 28.11 28.35
2/19/2016 01:00 to 0:10 28.28 28.26 28.41 28.34 28.55 28.40